Flag for Turkey

Past Weather in Malatya, Turkey — Yesterday and Last 2 Weeks

Now
79 °F

Sunny.


Feels Like: 79 °F
Forecast: 97 / 64 °F
Wind: No wind

Location: Malatya / Erhac

Current Time: Jul 4, 2020 at 8:48:06 am

Latest Report: Jul 4, 2020 at 7:50 am


Visibility: 10 mi

Pressure: 29.89 "Hg (26.79 "Hg at 960m altitude)

Humidity: 34%

Dew Point: 48 °F

Location of MalatyaLocation

Past Weather in Malatya — Graph

°F

Malatya Temperature Yesterday

Maximum temperature yesterday: 97 °F (at 3:50 pm)
Minimum temperature yesterday: 61 °F (at 2:50 am)
Average temperature yesterday: 80 °F

High & Low Weather Summary for the Past Weeks

 TemperatureHumidityPressure
High97 °F (Jul 3, 3:50 pm)82% (Jun 22, 4:50 am)29.98 "Hg (Jun 22, 4:50 am)
Low52 °F (Jun 22, 4:50 am)11% (Jun 30, 4:20 pm)29.62 "Hg (Jun 30, 4:50 pm)
Average78 °F38%29.81 "Hg
* Reported Jun 19 7:20 am — Jul 4 7:20 am, Malatya. Weather by CustomWeather, © 2020

Note: Actual official high and low records may vary slightly from our data, if they occured in-between our weather recording intervals... More about our weather records

Malatya Weather History for the Previous 24 Hours

Scroll right to see more
 ConditionsComfort  
Time TempWeatherWind HumidityBarometerVisibility
7:20 am
Sat, Jul 4
77 °FPassing clouds.3 mph36%29.89 "HgN/A
6:50 am72 °FSunny.3 mph44%29.89 "Hg10 mi
6:20 am66 °FSunny.7 mph46%29.86 "Hg10 mi
5:50 am63 °FSunny.2 mph52%29.89 "Hg10 mi
5:20 am61 °FSunny.6 mph55%29.86 "Hg10 mi
4:50 am61 °FClear.6 mph55%29.86 "Hg10 mi
3:50 am66 °FClear.No wind49%29.86 "Hg10 mi
3:20 am64 °FPassing clouds.5 mph52%29.86 "HgN/A
2:50 am66 °FClear.6 mph46%29.86 "Hg10 mi
2:20 am70 °FClear.2 mph43%29.86 "Hg10 mi
1:50 am73 °FClear.2 mph36%29.86 "Hg10 mi
1:20 am75 °FClear.8 mph34%29.86 "Hg10 mi
12:50 am81 °FPassing clouds.8 mph28%29.86 "HgN/A
12:20 am81 °FPassing clouds.7 mph26%29.86 "HgN/A
11:50 pm
Fri, Jul 3
86 °FClear.13 mph22%29.86 "Hg10 mi
11:20 pm86 °FClear.15 mph20%29.83 "Hg10 mi
10:50 pm79 °FClear.1 mph30%29.83 "Hg10 mi
10:20 pm75 °FClear.No wind39%29.83 "Hg10 mi
9:50 pm73 °FClear.6 mph44%29.83 "Hg10 mi
9:20 pm75 °FClear.3 mph44%29.83 "Hg10 mi
8:50 pm75 °FClear.5 mph41%29.80 "Hg10 mi
8:20 pm79 °FClear.No wind37%29.80 "Hg10 mi
7:50 pm82 °FSunny.3 mph37%29.80 "Hg10 mi
7:20 pm90 °FScattered clouds.No wind24%29.80 "HgN/A
6:50 pm93 °FScattered clouds.3 mph20%29.80 "HgN/A
6:20 pm91 °FScattered clouds.5 mph24%29.80 "HgN/A
5:50 pm93 °FScattered clouds.7 mph20%29.80 "HgN/A
5:20 pm93 °FScattered clouds.7 mph20%29.80 "HgN/A
4:50 pm93 °FScattered clouds.7 mph20%29.80 "HgN/A
3:50 pm97 °FScattered clouds.7 mph18%29.80 "HgN/A
3:20 pm95 °FScattered clouds.8 mph19%29.83 "HgN/A
2:50 pm95 °FScattered clouds.6 mph20%29.83 "HgN/A
2:20 pm95 °FScattered clouds.5 mph20%29.83 "HgN/A
1:50 pm95 °FPassing clouds.5 mph20%29.83 "HgN/A
1:20 pm93 °FPassing clouds.6 mph23%29.83 "HgN/A
12:50 pm93 °FPassing clouds.6 mph26%29.86 "HgN/A
12:20 pm91 °FSunny.6 mph26%29.86 "Hg10 mi
11:50 am90 °FPassing clouds.7 mph26%29.86 "HgN/A
11:20 am90 °FPassing clouds.6 mph27%29.86 "HgN/A
10:50 am90 °FPassing clouds.7 mph27%29.89 "HgN/A
10:20 am88 °FPassing clouds.6 mph29%29.89 "HgN/A
9:50 am86 °FPassing clouds.6 mph31%29.89 "HgN/A
9:20 am84 °FPassing clouds.6 mph33%29.89 "HgN/A
8:50 am82 °FPassing clouds.7 mph35%29.89 "HgN/A
8:20 am81 °FPassing clouds.6 mph34%29.89 "HgN/A
Weather by CustomWeather, © 2020

See weather overview